Tracking 29493 objects as of 8-Sep-2024
HD Live streaming from Space Station
objects crossing your sky now

COSMOS 2491 DEB

Track COSMOS 2491 DEB now!
10-day predictions


NORAD ID: 45130
Int'l Code: 2013-076AB
Perigee: 1,334.3 km
Apogee: 1,467.6 km
Inclination: 82.4 °
Period: 113.6 minutes
Semi major axis: 7771 km
RCS: Unknown
Launch date: December 25, 2013
Source: Commonwealth of Independent States (former USSR) (CIS)
Launch site: PLESETSK MISSILE AND SPACE COMPLEX (PKMTR)

Note: This is SATELLITE DEBRIS
Your satellite tracking list
Your tracking list is empty




NASA's NSSDC Master Catalog

Two Line Element Set (TLE):
1 45130U 13076AC  24251.52234089  .00006613  00000-0  34104-1 0  9996
2 45130  82.4496 168.8098 0085811 163.3346 197.0599 12.67090650212480
Source of the keplerian elements: AFSPC